Location: Oberwangen
(47.4286°N, 8.9679°E)
Time: 09:06:17
(UTC+00:00)

Lacrosse 5 rocket - Pass Details

Date: 20 June 2021
Orbit: 460 x 633 km, 57.0° (Epoch: 04 August)

Event Time Altitude Azimuth Distance (km) Brightness Sun altitude
Rises 23:43:55 0° 298° (WNW) 2,495 5.0 -19.0°
Reaches altitude 10° 23:46:34 10° 319° (NW) 1,613 4.3 -19.0°
Maximum altitude 23:49:07 18° 4° (N) 1,203 4.1 -18.9°
Drops below altitude 10° 23:51:41 10° 49° (NE) 1,621 4.4 -18.9°
Sets 23:54:21 0° 70° (ENE) 2,511 5.1 -18.8°
